RH
71 72 74 76 77 85 91 96 98 87 74 97 94 93 59 54 40 36 40 45 35 24 23 29 31 28 26 30 39 47 38 44 59 47 31 28 36 42 41 85 71 72 74 62
65 66 71 76 78 84 90 94 92 93 96 98 95 76 60 51 48 39 38 37 35 30 31 34 27 33 32 34 40 39 40 48 62 44 36 41 40 27 28 37 58 76 83 53
73 75 76 77 74 80 87 86 98 99 98 94 92 74 78 83 56 50 38 35 34 45 42 34 33 36 39 38 41 66 51 49 53 59 45 38 46 40 38 44 69 59 49 40
76 77 77 78 77 77 92 88 94 70 94 97 94 91 94 72 86 56 44 44 42 44 42 28 36 36 33 40 54 51 48 58 52 44 41 43 46 44 41 48 46 54 42 38
72 73 77 78 80 77 92 95 98 93 96 70 93 97 96 82 66 89 62 56 39 38 42 30 27 34 38 32 44 48 50 59 52 65 38 36 48 37 36 39 36 31 30 30
63 66 68 70 71 81 89 65 74 90 90 82 97 85 92 83 64 58 50 47 52 50 40 31 26 24 28 29 37 46 51 59 58 62 37 42 42 33 31 31 25 26 31 27
58 60 62 63 64 67 95 94 96 97 85 70 64 53 53 60 76 83 66 46 50 45 36 38 41 39 42 41 40 39 47 56 58 71 48 53 30 23 30 33 27 24 27 28
56 58 59 60 61 61 64 75 88 96 98 76 68 56 50 45 42 52 60 48 38 37 47 60 50 46 43 38 40 44 45 48 57 67 54 38 30 28 34 34 26 25 30 30
56 56 57 58 59 59 59 67 76 86 97 82 63 73 64 66 58 56 49 43 41 46 67 76 62 46 29 50 67 58 50 48 52 53 66 48 27 28 32 26 34 27 29 32
56 57 58 58 58 58 62 78 67 88 96 73 65 74 69 55 63 67 56 52 79 64 92 92 56 43 24 36 49 77 70 64 69 62 63 49 28 34 29 35 32 29 27 32
56 57 58 58 60 58 66 75 65 88 89 78 70 58 70 70 78 85 73 92 93 98 96 71 49 39 28 26 25 54 57 63 64 55 66 73 28 34 31 29 29 29 28 34
58 57 58 59 63 62 63 87 71 68 97 94 78 62 61 52 52 61 79 73 81 81 77 47 40 37 28 26 26 31 46 37 44 45 45 31 30 32 28 29 32 32 32 35
65 63 58 59 61 58 64 81 75 85 97 96 98 95 73 54 50 48 86 95 87 84 58 48 38 42 31 32 27 30 30 30 34 38 28 33 27 25 28 30 30 30 34 39
57 58 60 58 60 60 62 82 75 85 98 99 96 78 75 55 56 56 56 60 68 73 72 59 42 38 34 28 32 30 33 34 32 33 28 27 28 27 30 33 30 30 36 42
56 57 62 59 59 60 66 76 73 74 93 98 98 84 82 73 69 66 73 71 77 87 81 69 47 41 39 41 43 37 34 32 34 26 24 26 30 28 34 35 34 31 37 40
56 58 62 60 59 61 80 80 88 83 83 98 99 96 94 93 87 81 82 74 67 83 70 55 46 53 46 49 41 28 30 27 26 26 30 31 33 38 36 37 36 34 39 40
58 58 63 62 61 70 88 76 72 76 95 100 99 99 99 94 95 94 90 82 79 68 57 58 46 51 55 53 43 27 32 32 32 32 36 40 41 36 42 42 38 45 45 46
59 60 65 65 64 69 81 70 71 74 96 99 100 100 99 99 99 99 91 94 73 67 61 61 56 62 59 65 39 31 37 39 42 44 44 46 48 48 46 43 45 45 44 46
61 64 67 71 80 91 75 80 79 93 97 100 100 94 96 99 99 99 97 82 96 74 66 60 60 57 75 49 38 34 43 46 48 52 53 49 48 46 47 47 44 48 43 47
62 71 69 82 87 83 80 92 100 100 99 100 100 86 95 89 91 99 96 86 84 96 70 72 74 60 49 46 48 49 53 51 54 58 64 61 60 53 47 48 45 44 45 48
73 82 92 82 67 85 100 100 100 100 100 99 96 86 94 84 91 96 74 93 81 90 80 75 81 78 52 53 53 53 53 53 53 53 55 56 58 61 60 58 53 54 50 54
70 77 71 79 96 98 100 95 100 100 96 97 86 87 90 99 94 94 86 88 85 87 82 85 90 65 65 60 60 57 55 57 59 60 62 59 59 58 61 63 61 58 53 58
74 88 96 100 97 98 96 92 98 98 98 95 92 99 98 99 99 98 84 92 87 77 90 87 71 70 59 62 63 64 68 72 68 61 61 62 63 64 63 63 62 55 52 55
84 90 96 94 95 90 92 95 96 98 95 91 88 99 99 99 99 98 90 85 81 92 89 85 72 66 64 67 68 66 65 70 79 78 73 72 85 78 77 72 61 55 57 65
87 96 90 91 92 91 95 100 100 99 92 84 99 100 99 100 99 98 89 96 94 81 77 82 75 72 71 70 69 65 62 61 63 61 73 87 88 86 70 67 63 60 65 67
94 95 93 81 90 88 90 98 99 99 95 97 100 100 100 99 99 92 89 87 88 84 87 77 70 72 70 66 64 62 59 58 58 58 58 58 61 62 61 59 64 65 67 70
92 95 84 86 87 92 89 95 97 99 100 100 100 100 100 97 94 92 77 86 90 90 83 73 70 79 91 93 86 75 65 60 61 63 68 70 69 78 79 68 63 69 71 70
Wind_Speed
3 3 3 4 3 12 9 3 4 5 8 5 4 7 5 1 9 8 8 5 10 14 7 8 7 9 6 5 6 5 6 7 12 18 20 5 7 12 11 5 9 12 13 19
4 4 2 3 3 15 5 3 1 3 3 7 10 5 11 12 9 9 7 8 10 4 9 8 13 7 2 8 7 4 4 6 9 11 5 4 6 10 13 14 11 19 15 15
7 4 6 6 5 12 5 4 4 4 5 4 8 12 14 10 9 16 15 12 10 7 9 11 9 6 4 7 11 2 1 8 12 12 19 18 22 22 17 15 10 17 19 26
10 10 7 4 4 5 6 4 3 4 5 9 10 4 3 14 7 12 7 11 16 12 12 15 18 17 17 10 6 6 6 9 13 20 22 22 23 22 20 16 19 19 26 26
12 11 11 9 10 2 4 2 3 4 3 8 10 11 6 14 13 6 10 20 16 18 23 20 14 9 8 8 8 9 6 8 11 17 17 11 17 20 19 18 18 17 17 22
9 10 10 10 12 2 3 3 3 3 3 6 7 10 7 12 20 19 21 22 14 20 21 20 21 15 12 10 8 9 6 5 6 8 10 18 12 2 7 12 13 10 14 20
7 8 9 9 9 5 1 2 3 5 9 13 16 21 21 20 18 21 14 16 19 21 10 14 10 13 13 14 14 12 8 7 5 8 12 4 5 9 4 10 16 10 12 16
4 6 7 9 9 8 5 2 2 2 6 10 18 24 24 25 25 24 23 25 23 7 7 12 13 8 7 12 12 14 13 9 5 5 6 15 6 3 3 4 10 3 11 14
10 8 8 8 10 11 7 5 3 4 6 15 22 20 21 18 19 21 26 22 15 9 4 12 19 15 11 6 6 2 10 11 7 3 4 5 6 3 2 2 4 6 9 12
10 11 12 10 11 11 8 6 8 6 7 19 19 18 17 17 20 15 14 18 6 7 6 8 14 15 3 8 10 9 7 8 14 10 6 9 6 4 2 5 5 9 10 9
12 12 13 15 14 14 9 7 9 8 8 21 22 25 17 12 12 13 7 5 7 6 8 11 11 13 10 8 7 10 12 11 7 7 7 9 5 4 4 10 13 11 9 6
14 13 15 17 16 17 13 8 8 9 9 12 17 24 30 30 27 14 4 5 4 8 8 11 9 10 4 11 7 8 8 5 6 10 7 3 5 2 7 7 10 8 7 6
16 16 15 19 18 18 14 9 8 6 8 14 18 15 23 26 21 15 9 5 6 7 9 8 6 8 7 7 7 7 7 6 3 3 5 10 8 4 4 7 7 6 5 6
19 19 17 19 21 21 18 11 8 7 4 8 4 3 11 10 8 12 14 7 6 4 5 9 5 6 4 3 2 7 2 11 8 6 10 8 3 5 2 8 4 4 3 4
19 21 20 20 22 23 16 12 11 13 9 6 4 3 4 4 9 12 5 4 7 5 4 6 7 2 4 1 1 5 7 7 7 3 4 1 5 3 6 7 4 2 4 3
20 22 21 21 22 20 10 6 1 5 13 6 6 0 3 3 7 10 7 7 5 4 6 7 2 1 3 4 4 3 10 4 5 1 3 2 3 2 2 4 4 3 2 2
22 22 24 23 23 11 8 8 4 4 5 5 5 3 2 4 6 3 4 5 4 5 5 5 3 3 3 2 4 2 4 7 6 3 2 3 4 1 3 6 5 1 1 1
23 21 24 26 27 23 14 13 27 19 7 5 4 2 3 4 4 4 3 5 4 3 1 2 3 3 2 5 7 10 3 4 4 5 3 2 2 5 6 3 4 4 3 4
21 20 25 17 7 5 3 10 17 6 5 4 4 7 5 5 2 3 3 3 4 0 3 3 4 4 7 7 9 7 8 4 3 2 3 5 6 7 6 6 6 6 4 4
17 11 6 5 0 14 15 1 3 6 6 4 4 3 5 5 3 3 4 2 4 4 3 4 4 6 10 5 3 2 5 4 4 2 3 3 2 3 4 5 6 6 4 3
3 4 4 5 13 3 3 5 5 5 5 5 3 3 6 0 3 3 1 3 4 4 4 6 4 6 7 4 7 5 4 4 4 5 5 4 6 7 7 7 7 5 5 4
2 4 7 4 4 5 6 4 5 6 5 4 8 5 4 3 2 3 3 3 2 4 7 5 5 3 6 5 4 3 3 3 4 4 5 5 6 7 7 8 7 6 4 4
3 3 5 5 5 7 6 5 4 3 4 5 6 6 4 4 2 3 3 5 3 7 4 5 4 5 4 3 2 3 2 1 2 2 2 4 6 5 4 5 5 5 4 5
3 6 7 6 6 5 1 3 6 4 1 7 7 4 4 3 3 3 4 4 5 6 6 6 3 5 4 3 2 3 3 3 2 2 3 2 2 2 3 3 3 2 4 4
4 6 5 5 3 3 4 4 4 3 4 8 3 3 2 3 4 2 5 5 5 6 4 2 4 5 5 4 3 3 3 3 3 3 2 2 2 2 3 4 3 3 5 5
4 6 5 3 5 3 4 5 5 2 4 3 1 3 4 3 4 6 6 6 7 3 3 5 6 7 6 6 5 4 4 4 4 4 4 4 4 5 4 5 5 5 4 5
5 3 3 4 6 6 5 4 3 5 2 3 2 5 2 3 4 5 2 1 3 7 7 6 8 8 6 6 6 6 6 7 7 7 6 6 6 5 6 7 6 6 5 5
Wind_Direction
262 317 334 317 297 156 156 137 219 173 154 181 202 227 251 348 249 230 264 286 280 277 258 254 260 253 225 173 173 220 214 290 288 286 288 305 265 273 287 287 300 294 283 282
283 275 296 328 299 164 144 217 205 189 200 231 212 273 254 260 233 227 215 245 231 255 255 260 233 251 298 199 214 259 154 237 299 301 164 166 237 270 281 279 277 272 287 285
27 311 270 265 297 217 211 186 211 153 215 277 272 233 237 236 215 252 250 259 255 229 236 238 273 256 254 218 227 102 272 251 250 268 289 305 297 297 295 287 270 280 274 292
32 24 7 287 257 351 209 220 244 190 217 217 250 231 244 241 231 229 261 258 232 223 251 247 252 257 258 223 209 201 241 265 267 273 284 289 285 286 290 276 266 268 288 303
33 26 29 12 342 292 224 247 183 182 319 241 224 220 231 249 236 224 235 238 254 237 246 248 275 241 240 241 175 201 221 265 299 288 280 273 284 281 276 272 274 277 294 299
11 13 11 18 20 331 249 239 236 202 223 248 222 226 252 260 251 257 253 262 261 262 266 273 276 291 273 276 224 210 221 259 300 269 328 306 279 258 268 283 288 286 306 313
351 352 347 353 349 5 156 350 321 262 251 235 250 256 261 256 235 244 254 262 261 263 310 309 275 267 256 254 240 241 234 242 257 282 308 256 38 302 263 275 285 268 311 317
333 327 325 322 320 317 296 284 263 272 278 273 266 270 263 261 259 247 252 252 247 281 288 270 261 227 244 233 229 226 227 226 263 266 294 284 271 177 305 320 300 143 323 321
321 306 297 302 306 307 293 273 237 269 282 250 258 269 267 263 255 252 253 242 249 221 213 247 242 238 232 183 172 197 207 226 225 193 266 273 39 126 323 250 247 351 329 329
305 307 300 283 287 290 287 276 258 256 268 265 253 251 265 263 248 254 266 238 177 217 200 239 232 233 250 205 183 166 169 196 218 231 259 278 291 59 145 264 30 347 338 336
289 293 296 294 286 284 281 278 264 241 257 270 264 263 255 251 224 216 170 197 187 168 212 219 220 234 215 237 168 170 175 170 190 198 219 264 162 139 257 340 314 314 322 343
274 279 286 287 286 279 280 276 264 248 244 274 293 260 244 244 235 231 203 223 184 206 197 220 206 235 217 229 218 189 210 222 185 201 215 124 167 287 307 317 311 314 310 339
286 277 278 285 289 289 283 278 280 268 264 265 240 233 239 235 234 211 180 207 169 248 260 273 208 243 190 200 227 188 224 202 240 175 208 236 258 229 258 316 318 297 311 316
289 289 282 287 291 295 293 279 263 248 265 270 252 300 235 196 207 222 227 215 160 161 288 261 214 233 203 227 11 227 91 154 206 251 278 258 300 196 308 310 329 264 276 318
288 289 285 287 292 293 293 278 253 226 209 289 307 274 186 188 170 198 198 182 178 171 215 241 227 119 189 142 262 228 187 179 192 225 130 32 108 115 331 303 320 308 286 289
284 287 285 285 291 296 303 293 309 246 203 229 228 216 224 160 172 183 180 205 203 198 213 229 176 60 247 213 230 256 199 233 271 289 91 46 342 351 19 308 337 338 269 304
283 285 287 284 289 285 254 240 279 329 79 263 242 200 165 113 122 142 177 167 203 238 213 214 161 173 230 233 233 172 207 217 207 204 198 255 202 94 321 296 309 332 356 341
282 286 287 288 289 285 267 253 259 259 241 233 243 110 163 194 150 138 186 174 201 228 165 157 183 144 209 249 236 251 159 163 188 205 214 5 333 301 291 278 280 264 227 177
281 288 293 291 251 226 231 305 291 230 196 248 200 171 167 171 141 131 155 225 178 232 193 194 181 182 219 228 235 229 193 207 144 122 230 260 263 283 290 272 254 253 250 204
280 294 255 251 337 326 305 306 204 197 187 223 230 112 147 183 154 120 125 247 142 176 185 121 218 245 230 220 231 141 166 176 155 216 242 205 237 241 280 290 277 264 262 218
235 236 244 325 328 280 233 252 220 184 201 180 165 144 138 231 151 128 274 163 165 182 169 201 215 251 220 170 198 180 179 204 226 257 286 275 267 274 276 274 260 261 250 218
237 302 283 260 237 232 243 225 235 215 193 144 157 143 117 111 115 125 215 130 176 191 139 191 235 220 127 160 159 168 186 217 239 239 263 277 269 266 264 263 261 260 251 179
261 240 242 211 208 236 223 231 218 186 154 163 162 134 124 134 159 113 166 167 154 119 179 227 243 129 139 122 148 165 173 192 240 235 286 280 278 276 257 265 252 257 212 166
220 240 234 224 210 230 284 324 311 347 348 156 142 123 123 137 145 137 148 92 151 208 210 223 146 148 116 108 128 193 141 134 134 62 18 342 334 324 337 314 307 222 155 137
244 250 243 236 342 290 262 267 274 247 232 157 115 95 149 141 130 146 122 161 217 223 220 92 120 122 118 113 99 99 107 107 83 65 64 45 29 37 49 16 21 83 110 121
242 246 267 299 278 308 342 312 287 255 185 100 81 155 172 148 138 168 188 182 211 155 102 109 119 113 105 100 88 74 76 77 79 68 60 67 62 60 56 48 43 51 85 107
244 254 305 299 282 284 310 328 308 326 239 183 179 186 113 116 168 168 188 238 84 119 111 98 101 102 95 92 88 72 68 75 68 70 55 56 61 55 52 51 33 39 43 67